This is the latest recevied weather packets stored in our database for station/object KO4LFZ. If no packets are shown the sender has not sent any weather packets the latest 10 day(s).
| Time | Temp. | Humidity | Pressure | Rain* | Wind** | Luminosity | Snow |
|---|---|---|---|---|---|---|---|
| 1777384748 | 21.11° C | 90% | 1015.6 hPa | 0 mm | - | 149 W/m² | - |
| 1777384442 | 21.11° C | 90% | 1015.7 hPa | 0 mm | - | 184 W/m² | - |
| 1777384138 | 21.11° C | 90% | 1015.5 hPa | 0 mm | - | 199 W/m² | - |
| 1777383834 | 20.56° C | 91% | 1015.5 hPa | 0 mm | - | 457 W/m² | - |
| 1777383530 | 20.56° C | 92% | 1015.5 hPa | 0 mm | - | 403 W/m² | - |
| 1777383227 | 20.56° C | 92% | 1015.5 hPa | 0 mm | - | 347 W/m² | - |
| 1777382924 | 20.56° C | 93% | 1015.1 hPa | 0 mm | - | 316 W/m² | - |
| 1777382619 | 20° C | 93% | 1015.1 hPa | 0 mm | - | 304 W/m² | - |
| 1777382315 | 20° C | 93% | 1015.2 hPa | 0 mm | - | 274 W/m² | - |
| 1777382011 | 20° C | 93% | 1015.2 hPa | 0 mm | - | 252 W/m² | - |
| 1777381706 | 20° C | 93% | 1015 hPa | 0 mm | - | 219 W/m² | - |
| 1777381402 | 20° C | 93% | 1015.1 hPa | 0 mm | - | 127 W/m² | - |
| 1777381099 | 20° C | 94% | 1015.1 hPa | 0 mm | - | 189 W/m² | - |
| 1777380795 | 19.44° C | 95% | 1015 hPa | 0 mm | - | 171 W/m² | - |
| 1777380492 | 19.44° C | 95% | 1015 hPa | 0 mm | - | 171 W/m² | - |
| 1777380189 | 18.89° C | 96% | 1014.7 hPa | 0 mm | - | 172 W/m² | - |
| 1777379885 | 18.89° C | 96% | 1014.8 hPa | 0 mm | - | 151 W/m² | - |
| 1777379580 | 18.89° C | 96% | 1014.6 hPa | 0 mm | - | 139 W/m² | - |
| 1777379276 | 18.89° C | 97% | 1014.4 hPa | 0 mm | - | 119 W/m² | - |
| 1777378971 | 18.89° C | 97% | 1014.5 hPa | 0 mm | - | 110 W/m² | - |
| 1777378667 | 18.89° C | 98% | 1014.4 hPa | 0 mm | - | 77 W/m² | - |
| 1777378363 | 18.33° C | 98% | 1014.5 hPa | 0 mm | - | 72 W/m² | - |
| 1777378058 | 17.78° C | 98% | 1014.4 hPa | 0 mm | - | 58 W/m² | - |
| 1777377753 | 17.78° C | 98% | 1014.6 hPa | 0 mm | - | 53 W/m² | - |
| 1777377447 | 17.78° C | 98% | 1014.5 hPa | 0 mm | - | 47 W/m² | - |
* Rain latest hour (hover to see other rain measurements)
** Current wind speed in m/s (hover to see current wind gust speed)